| time (UTC) | temp F | wind direction | speed knots | gust knots | rain 1hr in | rain 24hr in | rain mn in | humidity % | barometer mb |
| 20260901131506 | 74 | 211 | 0.0 | 0.0 | 0.00 | 0.01 | 0.01 | 99 | 1017.6 |
| 20260901130000 | 74 | 211 | 0.0 | 0.0 | 0.00 | 0.01 | 0.01 | 99 | 1017.7 |
| 20260901124600 | 73 | 211 | 0.0 | 0.0 | 0.00 | 0.01 | 0.01 | 99 | 1017.7 |
| 20260901123059 | 72 | 211 | 0.0 | 0.0 | 0.00 | 0.01 | 0.01 | 99 | 1017.7 |
| 20260901121603 | 71 | 211 | 0.0 | 0.0 | 0.00 | 0.01 | 0.01 | 99 | 1017.8 |
| 20260901120026 | 70 | 211 | 0.0 | 0.0 | 0.00 | 0.01 | 0.01 | 99 | 1017.7 |
| 20260901114526 | 70 | 211 | 0.0 | 0.0 | 0.00 | 0.01 | 0.01 | 99 | 1017.4 |
| 20260901113023 | 70 | 211 | 0.0 | 0.0 | 0.00 | 0.01 | 0.01 | 99 | 1017.2 |
| 20260901111520 | 70 | 211 | 0.0 | 0.0 | 0.00 | 0.01 | 0.01 | 99 | 1017.1 |
| 20260901110019 | 70 | 211 | 0.0 | 0.0 | 0.00 | 0.01 | 0.01 | 99 | 1016.9 |
| 20260901104521 | 70 | 211 | 0.0 | 0.0 | 0.00 | 0.01 | 0.01 | 99 | 1016.8 |
| 20260901103014 | 70 | 211 | 0.0 | 0.0 | 0.00 | 0.01 | 0.01 | 99 | 1016.7 |
| 20260901101514 | 70 | 211 | 0.0 | 0.0 | 0.00 | 0.01 | 0.01 | 99 | 1016.6 |
| 20260901100014 | 70 | 211 | 0.0 | 0.0 | 0.00 | 0.01 | 0.01 | 98 | 1016.6 |
| 20260901094512 | 71 | 211 | 0.0 | 0.0 | 0.00 | 0.01 | 0.01 | 98 | 1016.5 |
| 20260901093007 | 71 | 211 | 0.0 | 0.0 | 0.00 | 0.01 | 0.01 | 99 | 1016.3 |
| 20260901091507 | 71 | 211 | 0.0 | 0.0 | 0.01 | 0.01 | 0.01 | 99 | 1016.2 |
| 20260901090007 | 71 | 211 | 0.0 | 0.0 | 0.01 | 0.01 | 0.01 | 99 | 1016.2 |
| 20260901084504 | 71 | 211 | 0.0 | 0.0 | 0.01 | 0.01 | 0.01 | 98 | 1016.1 |
| 20260901083004 | 71 | 211 | 0.0 | 0.0 | 0.01 | 0.01 | 0.01 | 98 | 1016.1 |
| 20260901081500 | 71 | 211 | 0.0 | 0.0 | 0.00 | 0.00 | 0.00 | 99 | 1016.0 |
| 20260901080113 | 71 | 211 | 0.0 | 0.0 | 0.00 | 0.00 | 0.00 | 98 | 1016.0 |
| 20260901074623 | 72 | 211 | 0.0 | 0.0 | 0.00 | 0.00 | 0.00 | 98 | 1016.1 |
| 20260901073059 | 72 | 211 | 0.0 | 0.0 | 0.00 | 0.00 | 0.00 | 98 | 1016.0 |
| 20260901071526 | 72 | 211 | 0.0 | 0.0 | 0.00 | 0.00 | 0.00 | 98 | 1015.8 |
| 20260901070026 | 72 | 209 | 0.0 | 0.0 | 0.00 | 0.00 | 0.00 | 98 | 1015.9 |
| 20260901064523 | 72 | 209 | 0.0 | 0.0 | 0.00 | 0.00 | 0.00 | 98 | 1015.7 |
| 20260901063024 | 73 | 209 | 0.0 | 0.0 | 0.00 | 0.00 | 0.00 | 98 | 1015.7 |
| 20260901061521 | 73 | 209 | 0.0 | 0.0 | 0.00 | 0.00 | 0.00 | 98 | 1015.7 |
| 20260901060035 | 73 | 209 | 0.0 | 0.0 | 0.00 | 0.00 | 0.00 | 98 | 1015.8 |
| 20260901054549 | 73 | 209 | 0.0 | 0.0 | 0.00 | 0.00 | 0.00 | 98 | 1016.0 |
| 20260901053057 | 74 | 209 | 0.0 | 0.0 | 0.00 | 0.00 | 0.00 | 98 | 1016.1 |
| 20260901051508 | 74 | 209 | 0.0 | 0.0 | 0.00 | 0.00 | 0.00 | 97 | 1016.3 |
| 20260901050005 | 74 | 209 | 0.0 | 0.0 | 0.00 | 0.00 | 0.00 | 97 | 1016.2 |
| 20260901044502 | 74 | 209 | 0.0 | 0.0 | 0.00 | 0.00 | 0.00 | 97 | 1016.3 |
| 20260901043001 | 74 | 209 | 0.0 | 0.0 | 0.00 | 0.00 | 0.00 | 97 | 1016.3 |
| 20260901041501 | 75 | 209 | 0.0 | 0.0 | 0.00 | 0.00 | 0.00 | 97 | 1016.4 |
| 20260901040136 | 75 | 209 | 0.0 | 0.0 | 0.00 | 0.00 | 0.00 | 97 | 1016.5 |
| 20260901034558 | 75 | 208 | 0.0 | 0.0 | 0.00 | 0.00 | 0.00 | 97 | 1016.6 |
| 20260901033057 | 76 | 208 | 0.0 | 0.0 | 0.00 | 0.00 | 0.00 | 96 | 1016.5 |
| 20260901031559 | 76 | 208 | 0.0 | 0.0 | 0.00 | 0.00 | 0.00 | 96 | 1016.6 |
| 20260901024555 | 76 | 208 | 0.0 | 0.0 | 0.00 | 0.00 | 0.00 | 96 | 1016.6 |
| 20260901023100 | 77 | 208 | 0.0 | 0.0 | 0.00 | 0.00 | 0.00 | 96 | 1016.7 |
| 20260901021552 | 77 | 208 | 0.0 | 0.0 | 0.00 | 0.00 | 0.00 | 95 | 1016.6 |
| 20260901020055 | 77 | 208 | 0.0 | 0.0 | 0.00 | 0.00 | 0.00 | 95 | 1016.5 |
| 20260901014548 | 77 | 207 | 0.0 | 0.0 | 0.00 | 0.00 | 0.00 | 95 | 1016.4 |
| 20260901013055 | 78 | 207 | 0.0 | 0.0 | 0.00 | 0.00 | 0.00 | 95 | 1016.2 |
| 20260901011548 | 78 | 207 | 0.0 | 0.0 | 0.00 | 0.00 | 0.00 | 94 | 1016.0 |
| 20260901004516 | 79 | 207 | 0.0 | 0.9 | 0.00 | 0.00 | 0.00 | 93 | 1015.7 |
| 20260901003021 | 79 | 207 | 0.0 | 0.0 | 0.00 | 0.00 | 0.00 | 92 | 1015.5 |
| 20260901001525 | 80 | 207 | 0.0 | 1.7 | 0.00 | 0.00 | 0.00 | 91 | 1015.3 |
| 20260901000013 | 80 | 206 | 0.0 | 3.5 | 0.00 | 0.00 | 0.00 | 90 | 1015.2 |
| 20260831234512 | 81 | 207 | 2.6 | 4.3 | 0.00 | 0.00 | 0.00 | 89 | 1015.3 |
| 20260831233029 | 83 | 190 | 0.0 | 0.0 | 0.00 | 0.00 | 0.00 | 86 | 1015.3 |
| 20260831231517 | 84 | 183 | 0.0 | 0.0 | 0.00 | 0.00 | 0.00 | 84 | 1015.4 |
| 20260831230010 | 85 | 175 | 0.0 | 1.7 | 0.00 | 0.00 | 0.00 | 81 | 1015.5 |
| 20260831224508 | 86 | 167 | 1.7 | 4.3 | 0.00 | 0.00 | 0.00 | 79 | 1015.5 |
| 20260831223007 | 88 | 85 | 0.0 | 0.9 | 0.00 | 0.00 | 0.00 | 73 | 1015.6 |
| 20260831221505 | 89 | 40 | 0.0 | 5.2 | 0.00 | 0.00 | 0.00 | 70 | 1015.6 |
| 20260831220004 | 90 | 43 | 2.6 | 6.1 | 0.00 | 0.00 | 0.00 | 65 | 1015.7 |
| 20260831214500 | 91 | 43 | 3.5 | 5.2 | 0.00 | 0.00 | 0.00 | 65 | 1015.8 |
| 20260831213106 | 92 | 28 | 1.7 | 6.1 | 0.00 | 0.00 | 0.00 | 61 | 1016.1 |
| 20260831211528 | 92 | 82 | 1.7 | 6.1 | 0.00 | 0.00 | 0.00 | 59 | 1016.2 |
| 20260831210026 | 91 | 76 | 0.9 | 4.3 | 0.00 | 0.00 | 0.00 | 63 | 1016.1 |
| 20260831204523 | 92 | 32 | 2.6 | 7.0 | 0.00 | 0.00 | 0.00 | 62 | 1016.1 |
| 20260831203022 | 92 | 52 | 3.5 | 7.0 | 0.00 | 0.00 | 0.00 | 61 | 1016.2 |
| 20260831201524 | 91 | 49 | 2.6 | 5.2 | 0.00 | 0.00 | 0.00 | 62 | 1016.4 |
| 20260831200017 | 91 | 57 | 0.9 | 5.2 | 0.00 | 0.00 | 0.00 | 63 | 1016.6 |
| 20260831194514 | 91 | 214 | 1.7 | 5.2 | 0.00 | 0.00 | 0.00 | 68 | 1016.7 |
| 20260831193024 | 92 | 173 | 0.0 | 3.5 | 0.00 | 0.00 | 0.00 | 62 | 1016.8 |
| 20260831191511 | 91 | 196 | 0.0 | 4.3 | 0.00 | 0.00 | 0.00 | 63 | 1017.0 |
| 20260831190016 | 91 | 153 | 4.3 | 7.8 | 0.00 | 0.00 | 0.00 | 63 | 1017.3 |
| 20260831184510 | 91 | 72 | 3.5 | 6.1 | 0.00 | 0.00 | 0.00 | 66 | 1017.4 |
| 20260831183005 | 91 | 24 | 1.7 | 6.1 | 0.00 | 0.00 | 0.00 | 70 | 1017.4 |
| 20260831181506 | 89 | 41 | 2.6 | 6.1 | 0.00 | 0.00 | 0.00 | 72 | 1017.8 |
| 20260831181501 | 89 | 43 | 2.6 | 6.1 | 0.00 | 0.00 | 0.00 | 73 | 1017.8 |
| 20260831180112 | 88 | 36 | 2.6 | 7.0 | 0.00 | 0.00 | 0.00 | 72 | 1017.7 |
| 20260831174554 | 87 | 77 | 3.5 | 7.0 | 0.00 | 0.00 | 0.00 | 74 | 1017.8 |
| 20260831173124 | 86 | 32 | 0.0 | 6.1 | 0.00 | 0.00 | 0.00 | 74 | 1018.0 |
| 20260831171523 | 87 | 17 | 0.9 | 7.8 | 0.00 | 0.00 | 0.00 | 75 | 1018.1 |
| 20260831170033 | 86 | 22 | 5.2 | 7.8 | 0.00 | 0.00 | 0.00 | 75 | 1018.1 |
| 20260831164520 | 85 | 67 | 3.5 | 7.8 | 0.00 | 0.00 | 0.00 | 78 | 1018.3 |
| 20260831163011 | 83 | 61 | 3.5 | 7.8 | 0.00 | 0.00 | 0.00 | 80 | 1018.2 |
| 20260831161508 | 82 | 41 | 0.9 | 7.0 | 0.00 | 0.00 | 0.00 | 83 | 1018.4 |
| 20260831160034 | 80 | 307 | 0.0 | 0.0 | 0.00 | 0.00 | 0.00 | 87 | 1018.5 |
| 20260831154533 | 78 | 311 | 0.0 | 0.0 | 0.00 | 0.00 | 0.00 | 90 | 1018.5 |
| 20260831153023 | 76 | 296 | 0.0 | 0.0 | 0.00 | 0.00 | 0.00 | 95 | 1018.5 |
| 20260831151521 | 75 | 213 | 0.0 | 0.0 | 0.00 | 0.00 | 0.00 | 98 | 1018.5 |
| 20260831150022 | 74 | 213 | 0.0 | 0.0 | 0.00 | 0.00 | 0.00 | 99 | 1018.7 |
| 20260831144512 | 74 | 213 | 0.0 | 0.0 | 0.00 | 0.00 | 0.00 | 99 | 1018.6 |
| 20260831143006 | 73 | 212 | 0.0 | 0.0 | 0.00 | 0.00 | 0.00 | 100 | 1018.5 |
| 20260831141501 | 73 | 212 | 0.0 | 0.0 | 0.00 | 0.00 | 0.00 | 100 | 1018.4 |
| 20260831140059 | 73 | 212 | 0.0 | 0.0 | 0.00 | 0.00 | 0.00 | 100 | 1018.3 |
| 20260831134553 | 72 | 212 | 0.0 | 0.0 | 0.00 | 0.00 | 0.00 | 100 | 1018.2 |
| 20260831133048 | 72 | 212 | 0.0 | 0.0 | 0.00 | 0.00 | 0.00 | 100 | 1018.3 |